TimeCST,TemperatureF,Dew PointF,Humidity,Sea Level PressureIn,VisibilityMPH,Wind Direction,Wind SpeedMPH,Gust SpeedMPH,PrecipitationIn,Events,Conditions,WindDirDegrees,DateUTC
12:15 AM,23.9,21.2,89,30.14,10.0,West,9.2,-,N/A,,Overcast,260,2011-12-08 06:15:00
12:55 AM,23.7,21.6,91,30.13,10.0,WSW,5.8,-,N/A,,Overcast,250,2011-12-08 06:55:00
1:15 AM,23.7,21.6,91,30.13,10.0,West,5.8,-,N/A,,Overcast,280,2011-12-08 07:15:00
1:35 AM,23.5,21.4,91,30.13,10.0,West,6.9,-,N/A,,Overcast,270,2011-12-08 07:35:00
1:55 AM,23.5,21.4,91,30.13,10.0,West,6.9,-,N/A,,Overcast,280,2011-12-08 07:55:00
2:15 AM,23.9,21.7,91,30.14,10.0,West,6.9,-,N/A,,Overcast,280,2011-12-08 08:15:00
2:35 AM,24.6,22.3,91,30.14,10.0,WNW,8.1,-,N/A,,Overcast,300,2011-12-08 08:35:00
2:55 AM,25.7,22.5,88,30.15,10.0,WNW,8.1,-,N/A,,Overcast,300,2011-12-08 08:55:00
3:15 AM,26.1,22.6,87,30.16,10.0,NW,6.9,-,N/A,,Overcast,310,2011-12-08 09:15:00
3:35 AM,25.7,22.5,88,30.16,10.0,NW,8.1,-,N/A,,Overcast,310,2011-12-08 09:35:00
3:55 AM,25.7,22.5,88,30.14,10.0,NNW,4.6,-,N/A,,Overcast,340,2011-12-08 09:55:00
4:15 AM,23.7,21.0,89,30.15,10.0,WNW,8.1,-,N/A,,Scattered Clouds,300,2011-12-08 10:15:00
4:35 AM,22.1,19.9,91,30.14,10.0,WNW,5.8,-,N/A,,Clear,300,2011-12-08 10:35:00
4:55 AM,21.7,19.8,92,30.16,10.0,NW,5.8,-,N/A,,Clear,310,2011-12-08 10:55:00
5:15 AM,20.7,18.9,93,30.17,10.0,West,6.9,-,N/A,,Clear,270,2011-12-08 11:15:00
5:35 AM,19.0,18.1,96,30.16,7.0,West,5.8,-,N/A,,Clear,260,2011-12-08 11:35:00
5:55 AM,18.1,17.6,98,30.18,5.0,West,10.4,-,N/A,,Clear,270,2011-12-08 11:55:00
6:15 AM,17.4,16.9,98,30.19,7.0,West,9.2,-,N/A,,Mostly Cloudy,270,2011-12-08 12:15:00
6:35 AM,18.0,17.1,96,30.19,10.0,West,5.8,-,N/A,,Mostly Cloudy,270,2011-12-08 12:35:00
6:55 AM,18.3,17.6,97,30.19,10.0,NW,8.1,-,N/A,,Mostly Cloudy,310,2011-12-08 12:55:00
7:15 AM,21.4,20.3,96,30.19,10.0,WNW,4.6,-,N/A,,Mostly Cloudy,300,2011-12-08 13:15:00
7:35 AM,19.0,17.6,94,30.19,10.0,West,5.8,-,N/A,,Scattered Clouds,280,2011-12-08 13:35:00
7:55 AM,17.6,16.5,96,30.20,10.0,West,8.1,-,N/A,,Scattered Clouds,270,2011-12-08 13:55:00
8:15 AM,17.4,16.5,96,30.19,10.0,WSW,8.1,-,N/A,,Scattered Clouds,250,2011-12-08 14:15:00
8:35 AM,18.0,16.9,96,30.21,10.0,West,8.1,-,N/A,,Mostly Cloudy,280,2011-12-08 14:35:00
8:55 AM,18.5,17.6,96,30.21,10.0,WNW,8.1,-,N/A,,Overcast,290,2011-12-08 14:55:00
9:15 AM,19.2,18.0,95,30.20,10.0,NNW,10.4,-,N/A,,Scattered Clouds,330,2011-12-08 15:15:00
9:35 AM,20.8,18.1,89,30.21,10.0,NNW,5.8,-,N/A,,Clear,340,2011-12-08 15:35:00
9:55 AM,23.2,18.5,82,30.23,10.0,NNW,10.4,-,N/A,,Clear,330,2011-12-08 15:55:00
10:15 AM,23.9,18.3,79,30.24,10.0,NNW,10.4,-,N/A,,Clear,330,2011-12-08 16:15:00
10:35 AM,23.9,18.1,79,30.25,10.0,NNW,12.7,-,N/A,,Scattered Clouds,340,2011-12-08 16:35:00
10:55 AM,23.7,17.4,77,30.25,10.0,NNW,9.2,-,N/A,,Scattered Clouds,340,2011-12-08 16:55:00
11:15 AM,23.4,16.5,75,30.25,10.0,NNW,9.2,-,N/A,,Scattered Clouds,340,2011-12-08 17:15:00
11:35 AM,23.2,14.9,71,30.24,10.0,NNW,12.7,-,N/A,,Mostly Cloudy,340,2011-12-08 17:35:00
11:55 AM,23.4,13.6,66,30.24,10.0,NNW,12.7,-,N/A,,Overcast,340,2011-12-08 17:55:00
12:35 PM,23.2,13.3,66,30.23,10.0,NNW,12.7,-,N/A,,Overcast,330,2011-12-08 18:35:00
12:55 PM,22.8,13.5,67,30.22,10.0,NW,9.2,-,N/A,,Mostly Cloudy,320,2011-12-08 18:55:00
1:15 PM,23.0,14.0,68,30.22,10.0,NW,9.2,-,N/A,,Overcast,320,2011-12-08 19:15:00
1:35 PM,22.8,13.3,67,30.22,10.0,NW,9.2,-,N/A,,Overcast,320,2011-12-08 19:35:00
1:55 PM,22.5,12.7,66,30.21,10.0,NW,10.4,-,N/A,,Overcast,320,2011-12-08 19:55:00
2:15 PM,21.9,12.7,68,30.20,10.0,NW,8.1,-,N/A,,Mostly Cloudy,320,2011-12-08 20:15:00
2:35 PM,21.6,12.4,68,30.20,10.0,NW,8.1,-,N/A,,Mostly Cloudy,310,2011-12-08 20:35:00
2:55 PM,21.2,11.5,66,30.20,10.0,NW,6.9,-,N/A,,Mostly Cloudy,310,2011-12-08 20:55:00
3:15 PM,21.2,11.5,66,30.20,10.0,NW,6.9,-,N/A,,Mostly Cloudy,320,2011-12-08 21:15:00
3:35 PM,21.0,11.7,67,30.20,10.0,NW,8.1,-,N/A,,Overcast,310,2011-12-08 21:35:00
3:55 PM,20.8,12.2,69,30.21,10.0,NW,8.1,-,N/A,,Overcast,310,2011-12-08 21:55:00
4:15 PM,20.5,12.9,73,30.21,10.0,WNW,6.9,-,N/A,,Overcast,290,2011-12-08 22:15:00
4:35 PM,20.3,13.3,74,30.21,10.0,West,6.9,-,N/A,,Overcast,270,2011-12-08 22:35:00
5:35 PM,19.4,15.4,85,30.21,10.0,WSW,8.1,-,N/A,,Overcast,250,2011-12-08 23:35:00
5:55 PM,19.4,16.0,87,30.21,3.0,West,9.2,-,N/A,,Overcast,260,2011-12-08 23:55:00
6:15 PM,19.0,16.5,90,30.21,2.5,West,10.4,-,N/A,,Overcast,280,2011-12-09 00:15:00
6:35 PM,18.5,16.3,91,30.22,1.8,West,8.1,-,N/A,,Overcast,280,2011-12-09 00:35:00
6:55 PM,18.1,16.3,93,30.22,5.0,West,8.1,-,N/A,,Overcast,260,2011-12-09 00:55:00
7:15 PM,18.0,16.3,93,30.22,10.0,West,9.2,-,N/A,,Overcast,260,2011-12-09 01:15:00
7:35 PM,17.6,16.0,93,30.21,10.0,West,6.9,-,N/A,,Overcast,260,2011-12-09 01:35:00
7:55 PM,17.4,15.8,93,30.21,10.0,WSW,6.9,-,N/A,,Overcast,250,2011-12-09 01:55:00
8:15 PM,17.4,15.8,93,30.21,10.0,West,9.2,-,N/A,,Overcast,260,2011-12-09 02:15:00
8:35 PM,17.6,16.0,93,30.21,10.0,West,10.4,-,N/A,,Overcast,260,2011-12-09 02:35:00
8:55 PM,17.6,16.0,93,30.22,10.0,West,10.4,-,N/A,,Overcast,270,2011-12-09 02:55:00
9:15 PM,17.4,16.2,95,30.22,10.0,West,10.4,-,N/A,,Overcast,260,2011-12-09 03:15:00
9:35 PM,17.4,16.2,95,30.22,10.0,West,10.4,-,N/A,,Overcast,270,2011-12-09 03:35:00
9:55 PM,17.2,15.8,94,30.23,10.0,West,10.4,-,N/A,,Overcast,270,2011-12-09 03:55:00
10:15 PM,17.2,15.3,92,30.23,10.0,West,11.5,-,N/A,,Overcast,270,2011-12-09 04:15:00
10:35 PM,17.1,12.6,82,30.23,10.0,West,11.5,-,N/A,,Scattered Clouds,280,2011-12-09 04:35:00
10:55 PM,16.3,11.3,81,30.23,10.0,WNW,10.4,-,N/A,,Scattered Clouds,290,2011-12-09 04:55:00
11:15 PM,15.6,10.6,80,30.24,10.0,WNW,10.4,-,N/A,,Scattered Clouds,290,2011-12-09 05:15:00
11:35 PM,14.7,9.7,80,30.23,10.0,West,12.7,-,N/A,,Mostly Cloudy,280,2011-12-09 05:35:00
11:55 PM,14.4,7.9,75,30.24,10.0,WNW,11.5,-,N/A,,Scattered Clouds,290,2011-12-09 05:55:00